Location: Makanda
(37.6176°N, 89.2090°W)
Time: 15:58:46
(UTC+00:00)

SL-16 R/B - Pass Details

Date: 23 September 2019
Orbit: 840 x 849 km, 71.0° (Epoch: 21 October)

Event Time Altitude Azimuth Distance (km) Brightness Sun altitude
Rises 00:22:30 0° 356° (N) 3,413 5.5 -6.5°
Reaches altitude 10° 00:26:39 10° 25° (NNE) 2,476 4.5 -7.3°
Maximum altitude 00:28:59 12° 49° (NE) 2,300 4.1 -7.7°
Drops below altitude 10° 00:31:19 10° 74° (ENE) 2,473 4.1 -8.2°
Enters shadow 00:31:56 - 80° (E) 2,574 4.1 -8.3°
